| time (UTC) | temp F | wind direction | speed knots | gust knots | rain 1hr in | rain 24hr in | rain mn in | humidity % | barometer mb |
| 20260507214013 | 76 | 89 | 7.0 | 8.7 | 0.00 | 0.00 | 0.00 | 80 | 1017.9 |
| 20260507213510 | 76 | 82 | 8.7 | 9.6 | 0.00 | 0.00 | 0.00 | 80 | 1017.9 |
| 20260507213007 | 76 | 138 | 5.2 | 7.0 | 0.00 | 0.00 | 0.00 | 80 | 1017.5 |
| 20260507212502 | 76 | 118 | 5.2 | 6.1 | 0.00 | 0.00 | 0.00 | 79 | 1017.7 |
| 20260507211959 | 76 | 128 | 3.5 | 6.1 | 0.00 | 0.00 | 0.00 | 79 | 1017.7 |
| 20260507211456 | 76 | 75 | 1.7 | 3.5 | 0.00 | 0.00 | 0.00 | 79 | 1017.7 |
| 20260507210952 | 76 | 152 | 3.5 | 5.2 | 0.00 | 0.00 | 0.00 | 79 | 1017.8 |
| 20260507210449 | 76 | 131 | 6.1 | 7.0 | 0.00 | 0.00 | 0.00 | 79 | 1017.5 |
| 20260507205946 | 76 | 119 | 4.3 | 6.1 | 0.00 | 0.00 | 0.00 | 79 | 1017.6 |
| 20260507205443 | 77 | 145 | 6.1 | 7.0 | 0.00 | 0.00 | 0.00 | 79 | 1017.6 |
| 20260507204939 | 77 | 87 | 10.4 | 12.2 | 0.00 | 0.00 | 0.00 | 79 | 1017.6 |
| 20260507204436 | 77 | 96 | 9.6 | 12.2 | 0.00 | 0.00 | 0.00 | 80 | 1017.6 |
| 20260507203934 | 77 | 201 | 5.2 | 7.0 | 0.00 | 0.00 | 0.00 | 80 | 1017.7 |
| 20260507203431 | 77 | 163 | 4.3 | 6.1 | 0.00 | 0.00 | 0.00 | 80 | 1017.6 |
| 20260507202928 | 77 | 115 | 7.0 | 8.7 | 0.00 | 0.00 | 0.00 | 78 | 1017.5 |
| 20260507202424 | 78 | 122 | 9.6 | 11.3 | 0.00 | 0.00 | 0.00 | 78 | 1017.3 |
| 20260507201920 | 78 | 105 | 6.1 | 7.8 | 0.00 | 0.00 | 0.00 | 79 | 1017.5 |
| 20260507201415 | 78 | 187 | 2.6 | 2.6 | 0.00 | 0.00 | 0.00 | 79 | 1017.7 |
| 20260507200912 | 78 | 109 | 5.2 | 7.8 | 0.00 | 0.00 | 0.00 | 78 | 1017.6 |
| 20260507200408 | 78 | 129 | 7.0 | 8.7 | 0.00 | 0.00 | 0.00 | 78 | 1017.7 |
| 20260507195904 | 79 | 112 | 8.7 | 12.2 | 0.00 | 0.00 | 0.00 | 77 | 1017.7 |
| 20260507195402 | 80 | 97 | 4.3 | 7.8 | 0.00 | 0.00 | 0.00 | 76 | 1017.6 |
| 20260507194859 | 80 | 188 | 5.2 | 7.8 | 0.00 | 0.00 | 0.00 | 76 | 1017.6 |
| 20260507194355 | 80 | 137 | 1.7 | 3.5 | 0.00 | 0.00 | 0.00 | 76 | 1017.6 |
| 20260507193851 | 80 | 92 | 12.2 | 13.9 | 0.00 | 0.00 | 0.00 | 75 | 1017.5 |
| 20260507193349 | 80 | 90 | 5.2 | 6.1 | 0.00 | 0.00 | 0.00 | 76 | 1017.6 |
| 20260507192845 | 80 | 187 | 2.6 | 3.5 | 0.00 | 0.00 | 0.00 | 77 | 1017.8 |
| 20260507192341 | 79 | 130 | 3.5 | 6.1 | 0.00 | 0.00 | 0.00 | 78 | 1017.7 |
| 20260507191838 | 80 | 192 | 5.2 | 9.6 | 0.00 | 0.00 | 0.00 | 78 | 1017.9 |
| 20260507191334 | 80 | 128 | 3.5 | 6.1 | 0.00 | 0.00 | 0.00 | 76 | 1018.1 |
| 20260507190831 | 80 | 160 | 8.7 | 13.0 | 0.00 | 0.00 | 0.00 | 76 | 1018.1 |
| 20260507190329 | 79 | 149 | 3.5 | 6.1 | 0.00 | 0.00 | 0.00 | 76 | 1018.1 |
| 20260507185828 | 79 | 94 | 5.2 | 7.0 | 0.00 | 0.00 | 0.00 | 77 | 1018.0 |
| 20260507185324 | 80 | 172 | 7.8 | 11.3 | 0.00 | 0.00 | 0.00 | 77 | 1018.0 |
| 20260507184822 | 80 | 154 | 8.7 | 12.2 | 0.00 | 0.00 | 0.00 | 77 | 1018.0 |
| 20260507184320 | 80 | 141 | 3.5 | 3.5 | 0.00 | 0.00 | 0.00 | 77 | 1018.2 |
| 20260507183816 | 80 | 194 | 6.1 | 7.8 | 0.00 | 0.00 | 0.00 | 77 | 1018.3 |
| 20260507183313 | 81 | 158 | 5.2 | 8.7 | 0.00 | 0.00 | 0.00 | 76 | 1018.3 |
| 20260507182811 | 82 | 79 | 3.5 | 7.0 | 0.00 | 0.00 | 0.00 | 74 | 1018.4 |
| 20260507182307 | 80 | 98 | 5.2 | 6.1 | 0.00 | 0.00 | 0.00 | 76 | 1018.1 |
| 20260507181802 | 80 | 146 | 7.0 | 11.3 | 0.00 | 0.00 | 0.00 | 76 | 1018.1 |
| 20260507181259 | 80 | 97 | 9.6 | 13.0 | 0.00 | 0.00 | 0.00 | 76 | 1018.2 |
| 20260507180755 | 80 | 184 | 2.6 | 5.2 | 0.00 | 0.00 | 0.00 | 76 | 1018.4 |
| 20260507180252 | 81 | 142 | 5.2 | 7.8 | 0.00 | 0.00 | 0.00 | 75 | 1018.5 |
| 20260507175748 | 82 | 113 | 5.2 | 7.0 | 0.00 | 0.00 | 0.00 | 73 | 1018.4 |
| 20260507175245 | 81 | 192 | 9.6 | 12.2 | 0.00 | 0.00 | 0.00 | 74 | 1018.5 |
| 20260507174742 | 80 | 163 | 7.0 | 8.7 | 0.00 | 0.00 | 0.00 | 75 | 1018.7 |
| 20260507174240 | 81 | 81 | 5.2 | 7.8 | 0.00 | 0.00 | 0.00 | 73 | 1018.8 |
| 20260507173738 | 81 | 231 | 3.5 | 7.0 | 0.00 | 0.00 | 0.00 | 75 | 1018.7 |
| 20260507173234 | 80 | 61 | 4.3 | 6.1 | 0.00 | 0.00 | 0.00 | 75 | 1018.8 |
| 20260507172731 | 80 | 178 | 3.5 | 7.8 | 0.00 | 0.00 | 0.00 | 76 | 1019.0 |
| 20260507172228 | 80 | 76 | 6.1 | 8.7 | 0.00 | 0.00 | 0.00 | 75 | 1018.9 |
| 20260507171728 | 81 | 162 | 6.1 | 9.6 | 0.00 | 0.00 | 0.00 | 74 | 1019.2 |
| 20260507171226 | 82 | 107 | 3.5 | 6.1 | 0.00 | 0.00 | 0.00 | 72 | 1019.4 |
| 20260507170722 | 81 | 144 | 4.3 | 6.1 | 0.00 | 0.00 | 0.00 | 74 | 1019.2 |
| 20260507170219 | 80 | 148 | 7.0 | 9.6 | 0.00 | 0.00 | 0.00 | 75 | 1019.3 |
| 20260507165715 | 81 | 169 | 9.6 | 12.2 | 0.00 | 0.00 | 0.00 | 73 | 1019.4 |
| 20260507165211 | 81 | 80 | 1.7 | 3.5 | 0.00 | 0.00 | 0.00 | 73 | 1019.6 |
| 20260507164707 | 81 | 72 | 9.6 | 12.2 | 0.00 | 0.00 | 0.00 | 72 | 1019.6 |
| 20260507164205 | 81 | 90 | 4.3 | 6.1 | 0.00 | 0.00 | 0.00 | 74 | 1019.7 |
| 20260507163702 | 82 | 111 | 5.2 | 8.7 | 0.00 | 0.00 | 0.00 | 73 | 1019.9 |
| 20260507163159 | 80 | 111 | 1.7 | 3.5 | 0.00 | 0.00 | 0.00 | 75 | 1019.7 |
| 20260507162655 | 80 | 75 | 7.0 | 9.6 | 0.00 | 0.00 | 0.00 | 74 | 1019.9 |
| 20260507162151 | 81 | 116 | 8.7 | 12.2 | 0.00 | 0.00 | 0.00 | 74 | 1019.9 |
| 20260507161648 | 82 | 151 | 5.2 | 7.0 | 0.00 | 0.00 | 0.00 | 74 | 1020.0 |
| 20260507161144 | 80 | 116 | 7.0 | 8.7 | 0.00 | 0.00 | 0.00 | 74 | 1020.2 |
| 20260507160641 | 80 | 50 | 3.5 | 6.1 | 0.00 | 0.00 | 0.00 | 74 | 1020.1 |
| 20260507160138 | 80 | 186 | 2.6 | 2.6 | 0.00 | 0.00 | 0.00 | 75 | 1020.3 |
| 20260507155633 | 80 | 131 | 1.7 | 5.2 | 0.00 | 0.00 | 0.00 | 78 | 1020.4 |
| 20260507155130 | 80 | 175 | 4.3 | 6.1 | 0.00 | 0.00 | 0.00 | 78 | 1020.5 |
| 20260507154626 | 79 | 178 | 6.1 | 9.6 | 0.00 | 0.00 | 0.00 | 77 | 1020.3 |
| 20260507154124 | 80 | 156 | 4.3 | 7.0 | 0.00 | 0.00 | 0.00 | 76 | 1020.5 |
| 20260507153620 | 79 | 113 | 1.7 | 2.6 | 0.00 | 0.00 | 0.00 | 78 | 1020.5 |
| 20260507153117 | 78 | 99 | 7.0 | 8.7 | 0.00 | 0.00 | 0.00 | 78 | 1020.5 |
| 20260507152613 | 78 | 139 | 2.6 | 5.2 | 0.00 | 0.00 | 0.00 | 79 | 1020.5 |
| 20260507152109 | 79 | 111 | 4.3 | 7.0 | 0.00 | 0.00 | 0.00 | 77 | 1020.4 |
| 20260507151605 | 80 | 204 | 2.6 | 3.5 | 0.00 | 0.00 | 0.00 | 75 | 1020.4 |
| 20260507151103 | 79 | 141 | 6.1 | 7.8 | 0.00 | 0.00 | 0.00 | 77 | 1020.6 |
| 20260507150600 | 78 | 162 | 1.7 | 2.6 | 0.00 | 0.00 | 0.00 | 79 | 1020.5 |
| 20260507150056 | 78 | 152 | 7.8 | 8.7 | 0.00 | 0.00 | 0.00 | 78 | 1020.7 |
| 20260507145551 | 78 | 139 | 4.3 | 6.1 | 0.00 | 0.00 | 0.00 | 79 | 1020.7 |
| 20260507145049 | 78 | 140 | 7.8 | 8.7 | 0.00 | 0.00 | 0.00 | 78 | 1020.7 |
| 20260507144546 | 80 | 99 | 8.7 | 11.3 | 0.00 | 0.00 | 0.00 | 76 | 1020.7 |
| 20260507144044 | 78 | 141 | 4.3 | 5.2 | 0.00 | 0.00 | 0.00 | 79 | 1020.8 |
| 20260507143540 | 77 | 204 | 6.1 | 9.6 | 0.00 | 0.00 | 0.00 | 80 | 1020.7 |
| 20260507143038 | 78 | 139 | 5.2 | 11.3 | 0.00 | 0.00 | 0.00 | 79 | 1020.7 |
| 20260507142533 | 79 | 161 | 5.2 | 7.0 | 0.00 | 0.00 | 0.00 | 77 | 1020.5 |
| 20260507142030 | 81 | 174 | 4.3 | 7.0 | 0.00 | 0.00 | 0.00 | 73 | 1020.6 |
| 20260507141526 | 80 | 218 | 1.7 | 2.6 | 0.00 | 0.00 | 0.00 | 74 | 1020.8 |
| 20260507141023 | 80 | 112 | 5.2 | 7.8 | 0.00 | 0.00 | 0.00 | 75 | 1020.8 |
| 20260507140520 | 78 | 71 | 7.0 | 7.8 | 0.00 | 0.00 | 0.00 | 77 | 1020.7 |
| 20260507140018 | 79 | 161 | 5.2 | 7.0 | 0.00 | 0.00 | 0.00 | 77 | 1020.8 |
| 20260507135514 | 78 | 164 | 2.6 | 5.2 | 0.00 | 0.00 | 0.00 | 78 | 1020.8 |
| 20260507135011 | 78 | 177 | 1.7 | 2.6 | 0.00 | 0.00 | 0.00 | 78 | 1020.6 |
| 20260507134508 | 77 | 172 | 2.6 | 2.6 | 0.00 | 0.00 | 0.00 | 79 | 1020.7 |
| 20260507134003 | 78 | 141 | 5.2 | 9.6 | 0.00 | 0.00 | 0.00 | 78 | 1020.7 |
| 20260507133459 | 78 | 185 | 2.6 | 3.5 | 0.00 | 0.00 | 0.00 | 78 | 1020.5 |
| 20260507132958 | 77 | 124 | 2.6 | 2.6 | 0.00 | 0.00 | 0.00 | 78 | 1020.5 |
| 20260507132454 | 78 | 93 | 5.2 | 6.1 | 0.00 | 0.00 | 0.00 | 76 | 1020.5 |
| 20260507131950 | 78 | 126 | 3.5 | 3.5 | 0.00 | 0.00 | 0.00 | 77 | 1020.5 |
| 20260507131448 | 77 | 94 | 1.7 | 3.5 | 0.00 | 0.00 | 0.00 | 79 | 1020.6 |
| 20260507130944 | 77 | 154 | 1.7 | 3.5 | 0.00 | 0.00 | 0.00 | 81 | 1020.4 |
| 20260507130442 | 76 | 151 | 4.3 | 6.1 | 0.00 | 0.00 | 0.00 | 80 | 1020.5 |
| 20260507125940 | 77 | 148 | 2.6 | 3.5 | 0.00 | 0.00 | 0.00 | 80 | 1020.5 |
| 20260507125438 | 77 | 116 | 2.6 | 3.5 | 0.00 | 0.00 | 0.00 | 81 | 1020.3 |
| 20260507124935 | 76 | 166 | 2.6 | 2.6 | 0.00 | 0.00 | 0.00 | 82 | 1020.4 |
| 20260507124431 | 76 | 190 | 0.0 | 0.9 | 0.00 | 0.00 | 0.00 | 82 | 1020.3 |
| 20260507123930 | 76 | 157 | 1.7 | 2.6 | 0.00 | 0.00 | 0.00 | 83 | 1020.3 |
| 20260507123427 | 75 | 140 | 3.5 | 3.5 | 0.00 | 0.00 | 0.00 | 83 | 1020.4 |
| 20260507122923 | 76 | 115 | 1.7 | 1.7 | 0.00 | 0.00 | 0.00 | 83 | 1020.2 |
| 20260507122418 | 76 | 168 | 0.9 | 1.7 | 0.00 | 0.00 | 0.00 | 83 | 1020.1 |
| 20260507121915 | 74 | 130 | 6.1 | 7.0 | 0.00 | 0.00 | 0.00 | 84 | 1020.0 |
| 20260507121410 | 74 | 135 | 3.5 | 6.1 | 0.00 | 0.00 | 0.00 | 85 | 1019.9 |
| 20260507120907 | 74 | 82 | 3.5 | 3.5 | 0.00 | 0.00 | 0.00 | 85 | 1019.7 |
| 20260507120403 | 74 | 107 | 2.6 | 2.6 | 0.00 | 0.00 | 0.00 | 86 | 1019.7 |
| 20260507115900 | 74 | 115 | 2.6 | 2.6 | 0.00 | 0.00 | 0.00 | 86 | 1020.0 |
| 20260507115356 | 74 | 176 | 2.6 | 5.2 | 0.00 | 0.00 | 0.00 | 86 | 1019.9 |
| 20260507114851 | 74 | 109 | 3.5 | 5.2 | 0.00 | 0.00 | 0.00 | 87 | 1019.6 |
| 20260507114349 | 73 | 104 | 5.2 | 7.0 | 0.00 | 0.00 | 0.00 | 87 | 1019.9 |
| 20260507113846 | 74 | 156 | 3.5 | 5.2 | 0.00 | 0.00 | 0.00 | 87 | 1019.5 |
| 20260507113343 | 74 | 132 | 1.7 | 3.5 | 0.00 | 0.00 | 0.00 | 87 | 1019.5 |
| 20260507112840 | 74 | 111 | 1.7 | 2.6 | 0.00 | 0.00 | 0.00 | 86 | 1019.5 |
| 20260507112337 | 74 | 167 | 2.6 | 3.5 | 0.00 | 0.00 | 0.00 | 86 | 1019.6 |
| 20260507111836 | 74 | 182 | 0.0 | 0.0 | 0.00 | 0.00 | 0.00 | 85 | 1019.6 |
| 20260507111332 | 74 | 177 | 1.7 | 1.7 | 0.00 | 0.00 | 0.00 | 85 | 1019.5 |
| 20260507110828 | 74 | 184 | 0.9 | 0.9 | 0.00 | 0.00 | 0.00 | 85 | 1019.4 |
| 20260507110324 | 74 | 182 | 0.0 | 0.0 | 0.00 | 0.00 | 0.00 | 85 | 1019.3 |
| 20260507105821 | 73 | 175 | 0.9 | 1.7 | 0.00 | 0.00 | 0.00 | 85 | 1019.6 |
| 20260507105318 | 73 | 175 | 0.9 | 0.9 | 0.00 | 0.00 | 0.00 | 85 | 1019.4 |
| 20260507104815 | 73 | 157 | 0.0 | 0.0 | 0.00 | 0.00 | 0.00 | 85 | 1019.3 |
| 20260507104311 | 73 | 196 | 0.0 | 0.0 | 0.00 | 0.00 | 0.00 | 85 | 1019.2 |
| 20260507103807 | 73 | 207 | 0.0 | 0.0 | 0.00 | 0.00 | 0.00 | 85 | 1019.2 |
| 20260507103303 | 73 | 209 | 0.9 | 0.9 | 0.00 | 0.00 | 0.00 | 85 | 1019.3 |
| 20260507102800 | 73 | 218 | 0.0 | 0.0 | 0.00 | 0.00 | 0.00 | 85 | 1019.1 |
| 20260507102257 | 73 | 214 | 0.9 | 0.9 | 0.00 | 0.00 | 0.00 | 85 | 1019.0 |
| 20260507101754 | 73 | 215 | 0.0 | 0.0 | 0.00 | 0.00 | 0.00 | 85 | 1019.0 |
| 20260507101253 | 72 | 190 | 0.0 | 0.9 | 0.00 | 0.00 | 0.00 | 85 | 1018.9 |
| 20260507100751 | 73 | 192 | 0.9 | 0.9 | 0.00 | 0.00 | 0.00 | 84 | 1019.1 |
| 20260507100249 | 73 | 221 | 0.9 | 0.9 | 0.00 | 0.00 | 0.00 | 84 | 1019.0 |
| 20260507095747 | 73 | 211 | 0.0 | 0.0 | 0.00 | 0.00 | 0.00 | 84 | 1019.1 |
| 20260507095243 | 73 | 191 | 0.9 | 1.7 | 0.00 | 0.00 | 0.00 | 84 | 1019.1 |
| 20260507094740 | 73 | 178 | 1.7 | 1.7 | 0.00 | 0.00 | 0.00 | 83 | 1019.1 |
| 20260507094237 | 73 | 60 | 2.6 | 5.2 | 0.00 | 0.00 | 0.00 | 84 | 1019.1 |
| 20260507093734 | 73 | 116 | 2.6 | 3.5 | 0.00 | 0.00 | 0.00 | 84 | 1019.0 |
| 20260507093232 | 73 | 67 | 3.5 | 7.8 | 0.00 | 0.00 | 0.00 | 84 | 1019.0 |
| 20260507092730 | 73 | 167 | 1.7 | 1.7 | 0.00 | 0.00 | 0.00 | 84 | 1019.0 |
| 20260507092225 | 73 | 115 | 2.6 | 2.6 | 0.00 | 0.00 | 0.00 | 84 | 1019.0 |
| 20260507091722 | 73 | 80 | 1.7 | 1.7 | 0.00 | 0.00 | 0.00 | 85 | 1019.0 |
| 20260507091219 | 73 | 151 | 1.7 | 1.7 | 0.00 | 0.00 | 0.00 | 86 | 1018.9 |
| 20260507090719 | 73 | 91 | 3.5 | 3.5 | 0.00 | 0.00 | 0.00 | 85 | 1019.1 |
| 20260507090216 | 73 | 156 | 1.7 | 1.7 | 0.00 | 0.00 | 0.00 | 85 | 1019.0 |
| 20260507085713 | 73 | 89 | 3.5 | 3.5 | 0.00 | 0.00 | 0.00 | 85 | 1019.1 |
| 20260507085210 | 73 | 103 | 1.7 | 2.6 | 0.00 | 0.00 | 0.00 | 85 | 1019.1 |
| 20260507084707 | 73 | 102 | 1.7 | 1.7 | 0.00 | 0.00 | 0.00 | 85 | 1019.1 |
| 20260507084203 | 73 | 90 | 3.5 | 3.5 | 0.00 | 0.00 | 0.00 | 85 | 1019.0 |
| 20260507083701 | 73 | 86 | 6.1 | 7.0 | 0.00 | 0.00 | 0.00 | 85 | 1018.8 |
| 20260507083157 | 73 | 111 | 5.2 | 6.1 | 0.00 | 0.00 | 0.00 | 85 | 1018.7 |
| 20260507082653 | 73 | 110 | 4.3 | 6.1 | 0.00 | 0.00 | 0.00 | 84 | 1018.9 |
| 20260507082149 | 73 | 84 | 3.5 | 6.1 | 0.00 | 0.00 | 0.00 | 84 | 1018.8 |
| 20260507081647 | 73 | 105 | 4.3 | 5.2 | 0.00 | 0.00 | 0.00 | 84 | 1019.0 |
| 20260507081143 | 73 | 104 | 1.7 | 1.7 | 0.00 | 0.00 | 0.00 | 84 | 1018.9 |
| 20260507080639 | 73 | 100 | 3.5 | 3.5 | 0.00 | 0.00 | 0.00 | 84 | 1018.8 |
| 20260507080136 | 73 | 165 | 2.6 | 5.2 | 0.00 | 0.00 | 0.00 | 85 | 1018.8 |
| 20260507075631 | 73 | 177 | 0.9 | 1.7 | 0.00 | 0.00 | 0.00 | 85 | 1018.9 |
| 20260507075127 | 73 | 102 | 1.7 | 1.7 | 0.00 | 0.00 | 0.00 | 85 | 1018.7 |
| 20260507074624 | 73 | 94 | 4.3 | 5.2 | 0.00 | 0.00 | 0.00 | 85 | 1018.7 |
| 20260507074122 | 73 | 84 | 7.0 | 7.8 | 0.00 | 0.00 | 0.00 | 85 | 1018.8 |
| 20260507073618 | 73 | 127 | 1.7 | 1.7 | 0.00 | 0.00 | 0.00 | 85 | 1018.9 |
| 20260507073115 | 73 | 80 | 2.6 | 3.5 | 0.00 | 0.00 | 0.00 | 85 | 1019.1 |
| 20260507072613 | 73 | 97 | 1.7 | 5.2 | 0.00 | 0.00 | 0.00 | 85 | 1019.0 |
| 20260507072109 | 73 | 97 | 7.8 | 8.7 | 0.00 | 0.00 | 0.00 | 85 | 1018.9 |
| 20260507071607 | 73 | 92 | 5.2 | 5.2 | 0.00 | 0.00 | 0.00 | 86 | 1019.1 |
| 20260507071103 | 73 | 74 | 4.3 | 5.2 | 0.00 | 0.00 | 0.00 | 85 | 1019.1 |
| 20260507070600 | 73 | 86 | 3.5 | 3.5 | 0.00 | 0.00 | 0.00 | 86 | 1019.2 |
| 20260507070057 | 73 | 131 | 2.6 | 2.6 | 0.00 | 0.00 | 0.00 | 85 | 1019.1 |
| 20260507065553 | 73 | 160 | 1.7 | 2.6 | 0.00 | 0.00 | 0.00 | 85 | 1019.1 |
| 20260507065051 | 73 | 120 | 3.5 | 3.5 | 0.00 | 0.00 | 0.00 | 85 | 1019.2 |
| 20260507064549 | 73 | 188 | 0.0 | 0.0 | 0.00 | 0.00 | 0.00 | 85 | 1019.2 |
| 20260507064047 | 73 | 196 | 0.0 | 0.0 | 0.00 | 0.00 | 0.00 | 85 | 1019.3 |
| 20260507063544 | 73 | 146 | 3.5 | 3.5 | 0.00 | 0.00 | 0.00 | 85 | 1019.4 |
| 20260507063041 | 73 | 75 | 3.5 | 6.1 | 0.00 | 0.00 | 0.00 | 85 | 1019.2 |
| 20260507062538 | 73 | 89 | 2.6 | 3.5 | 0.00 | 0.00 | 0.00 | 85 | 1019.3 |
| 20260507062035 | 73 | 109 | 1.7 | 2.6 | 0.00 | 0.00 | 0.00 | 85 | 1019.5 |
| 20260507061533 | 74 | 164 | 1.7 | 2.6 | 0.00 | 0.00 | 0.00 | 84 | 1019.7 |
| 20260507061031 | 73 | 114 | 10.4 | 12.2 | 0.00 | 0.00 | 0.00 | 85 | 1019.7 |
| 20260507060529 | 73 | 94 | 5.2 | 5.2 | 0.00 | 0.00 | 0.00 | 85 | 1019.7 |
| 20260507060025 | 73 | 98 | 5.2 | 6.1 | 0.00 | 0.00 | 0.00 | 84 | 1019.6 |
| 20260507055525 | 73 | 154 | 3.5 | 3.5 | 0.00 | 0.00 | 0.00 | 84 | 1019.9 |
| 20260507055022 | 73 | 107 | 5.2 | 6.1 | 0.00 | 0.00 | 0.00 | 84 | 1019.9 |
| 20260507054518 | 73 | 91 | 5.2 | 6.1 | 0.00 | 0.00 | 0.00 | 84 | 1019.9 |
| 20260507054015 | 73 | 86 | 5.2 | 6.1 | 0.00 | 0.00 | 0.00 | 85 | 1020.2 |
| 20260507053513 | 73 | 81 | 5.2 | 5.2 | 0.00 | 0.00 | 0.00 | 85 | 1020.3 |
| 20260507053012 | 73 | 87 | 3.5 | 6.1 | 0.00 | 0.00 | 0.00 | 84 | 1020.2 |
| 20260507052509 | 74 | 118 | 5.2 | 6.1 | 0.00 | 0.00 | 0.00 | 84 | 1020.3 |
| 20260507052005 | 73 | 95 | 5.2 | 6.1 | 0.00 | 0.00 | 0.00 | 85 | 1020.6 |
| 20260507051503 | 72 | 101 | 3.5 | 3.5 | 0.00 | 0.00 | 0.00 | 86 | 1020.5 |
| 20260507051000 | 72 | 85 | 1.7 | 2.6 | 0.00 | 0.00 | 0.00 | 87 | 1020.6 |
| 20260507050456 | 72 | 85 | 7.0 | 7.8 | 0.00 | 0.00 | 0.00 | 87 | 1020.6 |
| 20260507045953 | 72 | 133 | 1.7 | 1.7 | 0.00 | 0.00 | 0.00 | 88 | 1020.8 |
| 20260507045449 | 72 | 159 | 1.7 | 1.7 | 0.00 | 0.00 | 0.00 | 88 | 1021.0 |
| 20260507044947 | 72 | 104 | 0.9 | 1.7 | 0.00 | 0.00 | 0.00 | 88 | 1021.0 |
| 20260507044443 | 72 | 158 | 1.7 | 2.6 | 0.00 | 0.00 | 0.00 | 88 | 1021.0 |
| 20260507043940 | 71 | 191 | 0.0 | 0.0 | 0.00 | 0.00 | 0.00 | 89 | 1021.1 |
| 20260507043436 | 71 | 178 | 0.0 | 0.9 | 0.00 | 0.00 | 0.00 | 88 | 1021.3 |
| 20260507042932 | 71 | 166 | 0.9 | 0.9 | 0.00 | 0.00 | 0.00 | 88 | 1021.2 |
| 20260507042429 | 72 | 194 | 0.0 | 0.0 | 0.00 | 0.00 | 0.00 | 88 | 1021.3 |
| 20260507041925 | 72 | 186 | 0.9 | 0.9 | 0.00 | 0.00 | 0.00 | 88 | 1021.2 |
| 20260507041422 | 72 | 118 | 1.7 | 1.7 | 0.00 | 0.00 | 0.00 | 88 | 1021.4 |
| 20260507040919 | 71 | 70 | 3.5 | 3.5 | 0.00 | 0.00 | 0.00 | 89 | 1021.4 |
| 20260507040415 | 71 | 191 | 1.7 | 1.7 | 0.00 | 0.00 | 0.00 | 89 | 1021.4 |
| 20260507035911 | 71 | 183 | 0.9 | 0.9 | 0.00 | 0.00 | 0.00 | 89 | 1021.3 |
| 20260507035407 | 71 | 151 | 0.9 | 0.9 | 0.00 | 0.00 | 0.00 | 89 | 1021.5 |
| 20260507034904 | 71 | 238 | 1.7 | 1.7 | 0.00 | 0.00 | 0.00 | 89 | 1021.5 |
| 20260507034401 | 71 | 218 | 0.9 | 1.7 | 0.00 | 0.00 | 0.00 | 89 | 1021.4 |
| 20260507033859 | 71 | 194 | 0.0 | 0.0 | 0.00 | 0.00 | 0.00 | 89 | 1021.5 |
| 20260507033357 | 71 | 216 | 0.0 | 0.0 | 0.00 | 0.00 | 0.00 | 89 | 1021.4 |
| 20260507032854 | 71 | 233 | 0.0 | 0.0 | 0.00 | 0.00 | 0.00 | 89 | 1021.6 |
| 20260507032350 | 71 | 215 | 0.0 | 0.0 | 0.00 | 0.00 | 0.00 | 89 | 1021.5 |
| 20260507031846 | 71 | 194 | 0.0 | 0.0 | 0.00 | 0.00 | 0.00 | 89 | 1021.4 |
| 20260507031343 | 71 | 207 | 0.0 | 0.0 | 0.00 | 0.00 | 0.00 | 89 | 1021.5 |
| 20260507030840 | 71 | 205 | 0.0 | 0.0 | 0.00 | 0.00 | 0.00 | 89 | 1021.6 |
| 20260507030338 | 71 | 218 | 0.9 | 0.9 | 0.00 | 0.00 | 0.00 | 89 | 1021.5 |
| 20260507025834 | 71 | 221 | 0.9 | 0.9 | 0.00 | 0.00 | 0.00 | 89 | 1021.6 |
| 20260507025332 | 71 | 216 | 0.0 | 0.9 | 0.00 | 0.00 | 0.00 | 89 | 1021.6 |
| 20260507024829 | 71 | 202 | 0.0 | 0.0 | 0.00 | 0.00 | 0.00 | 89 | 1021.6 |
| 20260507024326 | 71 | 176 | 0.9 | 0.9 | 0.00 | 0.00 | 0.00 | 89 | 1021.7 |
| 20260507023822 | 71 | 152 | 0.9 | 1.7 | 0.00 | 0.00 | 0.00 | 89 | 1021.6 |
| 20260507023319 | 70 | 142 | 1.7 | 1.7 | 0.00 | 0.00 | 0.00 | 89 | 1021.7 |
| 20260507022816 | 71 | 203 | 0.0 | 0.0 | 0.00 | 0.00 | 0.00 | 88 | 1021.5 |
| 20260507022313 | 71 | 191 | 0.0 | 0.0 | 0.00 | 0.00 | 0.00 | 88 | 1021.4 |
| 20260507021809 | 71 | 194 | 0.0 | 0.0 | 0.00 | 0.00 | 0.00 | 88 | 1021.5 |
| 20260507021304 | 71 | 195 | 0.0 | 0.0 | 0.00 | 0.00 | 0.00 | 88 | 1021.6 |
| 20260507020803 | 71 | 190 | 0.0 | 0.0 | 0.00 | 0.00 | 0.00 | 88 | 1021.6 |
| 20260507020259 | 71 | 183 | 0.9 | 1.7 | 0.00 | 0.00 | 0.00 | 88 | 1021.5 |
| 20260507015756 | 72 | 195 | 0.0 | 0.0 | 0.00 | 0.00 | 0.00 | 87 | 1021.6 |
| 20260507015254 | 72 | 190 | 0.0 | 0.0 | 0.00 | 0.00 | 0.00 | 87 | 1021.6 |
| 20260507014751 | 72 | 202 | 0.0 | 0.0 | 0.00 | 0.00 | 0.00 | 87 | 1021.4 |
| 20260507014247 | 72 | 173 | 0.9 | 0.9 | 0.00 | 0.00 | 0.00 | 87 | 1021.4 |
| 20260507013743 | 72 | 189 | 0.0 | 0.0 | 0.00 | 0.00 | 0.00 | 87 | 1021.2 |
| 20260507013241 | 72 | 148 | 0.9 | 1.7 | 0.00 | 0.00 | 0.00 | 87 | 1021.3 |
| 20260507012738 | 72 | 108 | 3.5 | 5.2 | 0.00 | 0.00 | 0.00 | 87 | 1021.4 |
| 20260507012233 | 72 | 141 | 0.9 | 1.7 | 0.00 | 0.00 | 0.00 | 87 | 1021.2 |
| 20260507011732 | 72 | 191 | 0.0 | 0.0 | 0.00 | 0.00 | 0.00 | 87 | 1021.2 |
| 20260507011228 | 72 | 170 | 0.9 | 0.9 | 0.00 | 0.00 | 0.00 | 86 | 1021.2 |
| 20260507010727 | 73 | 193 | 0.0 | 0.0 | 0.00 | 0.00 | 0.00 | 86 | 1021.0 |
| 20260507010223 | 73 | 200 | 0.0 | 0.0 | 0.00 | 0.00 | 0.00 | 85 | 1021.3 |
| 20260507005721 | 73 | 195 | 0.0 | 0.0 | 0.00 | 0.00 | 0.00 | 85 | 1021.1 |
| 20260507005217 | 73 | 165 | 0.9 | 0.9 | 0.00 | 0.00 | 0.00 | 85 | 1021.0 |
| 20260507004714 | 73 | 153 | 1.7 | 1.7 | 0.00 | 0.00 | 0.00 | 85 | 1021.1 |
| 20260507004212 | 73 | 98 | 3.5 | 3.5 | 0.00 | 0.00 | 0.00 | 86 | 1021.0 |
| 20260507003708 | 72 | 110 | 2.6 | 5.2 | 0.00 | 0.00 | 0.00 | 87 | 1020.8 |
| 20260507003203 | 72 | 154 | 1.7 | 2.6 | 0.00 | 0.00 | 0.00 | 87 | 1020.9 |
| 20260507002659 | 72 | 119 | 3.5 | 5.2 | 0.00 | 0.00 | 0.00 | 87 | 1020.7 |
| 20260507002155 | 72 | 187 | 0.9 | 0.9 | 0.00 | 0.00 | 0.00 | 87 | 1020.8 |
| 20260507001652 | 72 | 186 | 0.9 | 0.9 | 0.00 | 0.00 | 0.00 | 86 | 1020.6 |
| 20260507001150 | 73 | 194 | 0.9 | 0.9 | 0.00 | 0.00 | 0.00 | 86 | 1020.7 |
| 20260507000646 | 72 | 177 | 0.9 | 0.9 | 0.00 | 0.00 | 0.00 | 86 | 1020.6 |
| 20260507000141 | 73 | 199 | 0.0 | 0.0 | 0.00 | 0.00 | 0.00 | 85 | 1020.8 |
| 20260506235639 | 73 | 201 | 0.0 | 0.0 | 0.00 | 0.00 | 0.00 | 85 | 1020.7 |
| 20260506235139 | 73 | 202 | 0.0 | 0.0 | 0.00 | 0.00 | 0.00 | 85 | 1020.6 |
| 20260506234637 | 73 | 200 | 0.0 | 0.0 | 0.00 | 0.00 | 0.00 | 85 | 1020.3 |
| 20260506234134 | 73 | 195 | 0.0 | 0.0 | 0.00 | 0.00 | 0.00 | 84 | 1020.4 |
| 20260506233631 | 74 | 194 | 0.9 | 0.9 | 0.00 | 0.00 | 0.00 | 84 | 1020.2 |
| 20260506233128 | 74 | 193 | 1.7 | 1.7 | 0.00 | 0.00 | 0.00 | 83 | 1020.3 |
| 20260506232624 | 74 | 98 | 2.6 | 2.6 | 0.00 | 0.00 | 0.00 | 82 | 1020.2 |
| 20260506232119 | 74 | 95 | 4.3 | 5.2 | 0.00 | 0.00 | 0.00 | 82 | 1020.1 |
| 20260506231617 | 74 | 130 | 3.5 | 3.5 | 0.00 | 0.00 | 0.00 | 81 | 1020.1 |
| 20260506231115 | 74 | 123 | 7.8 | 7.8 | 0.00 | 0.00 | 0.00 | 81 | 1020.0 |
| 20260506230611 | 74 | 111 | 5.2 | 6.1 | 0.00 | 0.00 | 0.00 | 82 | 1020.0 |
| 20260506230109 | 74 | 100 | 4.3 | 7.0 | 0.00 | 0.00 | 0.00 | 82 | 1019.9 |
| 20260506225605 | 74 | 109 | 5.2 | 6.1 | 0.00 | 0.00 | 0.00 | 82 | 1019.7 |
| 20260506225101 | 75 | 101 | 4.3 | 5.2 | 0.00 | 0.00 | 0.00 | 82 | 1019.7 |
| 20260506224558 | 75 | 143 | 2.6 | 3.5 | 0.00 | 0.00 | 0.00 | 82 | 1019.6 |
| 20260506224055 | 75 | 155 | 1.7 | 2.6 | 0.00 | 0.00 | 0.00 | 82 | 1019.7 |
| 20260506223551 | 75 | 180 | 1.7 | 3.5 | 0.00 | 0.00 | 0.00 | 82 | 1019.7 |
| 20260506223047 | 75 | 90 | 4.3 | 5.2 | 0.00 | 0.00 | 0.00 | 81 | 1019.4 |
| 20260506222544 | 75 | 142 | 3.5 | 5.2 | 0.00 | 0.00 | 0.00 | 80 | 1019.4 |
| 20260506222041 | 76 | 175 | 2.6 | 6.1 | 0.00 | 0.00 | 0.00 | 79 | 1019.5 |
| 20260506221538 | 76 | 151 | 4.3 | 5.2 | 0.00 | 0.00 | 0.00 | 78 | 1019.5 |
| 20260506221036 | 76 | 86 | 4.3 | 6.1 | 0.00 | 0.00 | 0.00 | 78 | 1019.3 |
| 20260506220532 | 76 | 170 | 3.5 | 5.2 | 0.00 | 0.00 | 0.00 | 78 | 1019.3 |
| 20260506220027 | 77 | 110 | 3.5 | 5.2 | 0.00 | 0.00 | 0.00 | 77 | 1019.3 |
| 20260506215525 | 76 | 147 | 5.2 | 6.1 | 0.00 | 0.00 | 0.00 | 77 | 1019.5 |
| 20260506215020 | 76 | 97 | 5.2 | 7.0 | 0.00 | 0.00 | 0.00 | 78 | 1019.3 |
| 20260506214517 | 77 | 165 | 5.2 | 7.0 | 0.00 | 0.00 | 0.00 | 78 | 1019.4 |